Change the Weather History Date:

Wednesday, June 4, 2014

  Actual Average Record
Temperature  
Mean Temperature 66 °F -  
Max Temperature 73 °F 73 °F 89 °F (1952)
Min Temperature 60 °F 50 °F 36 °F (1955)
Cooling Degree Days 2    
Growing Degree Days 16 (Base 50)    
Moisture  
Dew Point 58 °F    
Average Humidity 75    
Maximum Humidity 90    
Minimum Humidity 64    
Precipitation  
Precipitation 0.01 in - - ()
Sea Level Pressure  
Sea Level Pressure 29.82 in    
Wind  
Wind Speed 4 mph (SE)    
Max Wind Speed 8 mph    
Max Gust Speed -    
Visibility 10 miles    
Events      
Averages and records for this station are not official NWS values.
T = Trace of Precipitation, MM = Missing Value Source: NWS Daily Summary

Daily Weather History Graph

Daily Weather History Graph

Search for Another Location

Airport or City:

Trip Planner

Search our weather history database for the weather conditions in past years. The results will help you decide how hot, cold, wet, or windy it might be!

Date:

Astronomy

Jun. 04, 2014 Rise Set
Actual Time 5:15 AM EDT 8:19 PM EDT
Civil Twilight 4:41 AM EDT 8:52 PM EDT
Nautical Twilight 3:58 AM EDT 9:35 PM EDT
Astronomical Twilight 3:08 AM EDT 10:26 PM EDT
Moon 11:35 AM EDT (6/4) 12:13 AM EDT (6/4)
Length of Visible Light 16h 11m
Length of Day
15h 03m
Waxing Crescent, 39% of the Moon is Illuminated
Jun 4
Waxing Crescent
Jun 5
First Quarter
Jun 13
Full
Jun 19
Last Quarter
Jun 27
New

Hourly Weather History & Observations

Time (EDT) Temp. Dew Point Humidity Pressure Visibility Wind Dir Wind Speed Gust Speed Precip Events Conditions
12:52 AM 62.1 °F 55.9 °F 80% 29.87 in 10.0 mi East 5.8 mph - N/A   Overcast
3:52 AM 60.1 °F 52.0 °F 75% 29.84 in 10.0 mi ENE 4.6 mph - N/A   Overcast
4:52 AM 60.1 °F 52.0 °F 75% 29.85 in 10.0 mi Calm Calm - N/A   Overcast
5:52 AM 60.1 °F 53.1 °F 78% 29.87 in 10.0 mi NNE 5.8 mph - N/A   Overcast
6:52 AM 60.1 °F 51.1 °F 72% 29.86 in 10.0 mi SSW 5.8 mph - N/A   Overcast
7:01 AM 60.1 °F 50.0 °F 69% 29.86 in 10.0 mi Calm Calm - N/A   Overcast
7:20 AM 60.1 °F 50.0 °F 69% 29.87 in 10.0 mi NE 3.5 mph - N/A   Overcast
7:49 AM 60.8 °F 53.6 °F 77% 29.87 in 10.0 mi NNE 8.1 mph - N/A   Overcast
7:52 AM 60.1 °F 53.1 °F 78% 29.87 in 10.0 mi NNE 8.1 mph - N/A   Overcast
8:41 AM 60.1 °F 52.0 °F 75% 29.88 in 10.0 mi NE 6.9 mph - N/A   Overcast
8:52 AM 60.1 °F 52.0 °F 75% 29.89 in 10.0 mi NE 5.8 mph - N/A   Overcast
9:52 AM 61.0 °F 53.1 °F 75% 29.88 in 10.0 mi Calm Calm - N/A   Overcast
10:28 AM 62.1 °F 54.0 °F 75% 29.87 in 10.0 mi Calm Calm - N/A   Overcast
11:14 AM 64.0 °F 55.0 °F 73% 29.86 in 10.0 mi Variable 3.5 mph - N/A   Overcast
11:52 AM 68.0 °F 57.0 °F 68% 29.83 in 6.0 mi Calm Calm - N/A   Haze
12:52 PM 72.0 °F 59.0 °F 64% 29.81 in 10.0 mi South 4.6 mph - N/A   Overcast
1:52 PM 73.0 °F 60.1 °F 64% 29.80 in 10.0 mi South 8.1 mph - N/A   Overcast
2:37 PM 73.0 °F 61.0 °F 66% 29.79 in 10.0 mi South 6.9 mph - N/A   Overcast
2:52 PM 72.0 °F 61.0 °F 68% 29.79 in 10.0 mi Variable 4.6 mph - N/A   Mostly Cloudy
3:26 PM 73.0 °F 62.1 °F 68% 29.78 in 10.0 mi SE 5.8 mph - N/A   Mostly Cloudy
3:52 PM 73.0 °F 62.1 °F 68% 29.77 in 10.0 mi South 6.9 mph - N/A   Clear
4:42 PM 72.0 °F 62.1 °F 71% 29.77 in 10.0 mi SE 8.1 mph - N/A   Mostly Cloudy
4:52 PM 72.0 °F 62.1 °F 71% 29.76 in 10.0 mi SSE 5.8 mph - N/A   Scattered Clouds
5:40 PM 70.0 °F 61.0 °F 73% 29.76 in 10.0 mi Variable 5.8 mph - N/A   Mostly Cloudy
5:52 PM 69.1 °F 61.0 °F 75% 29.78 in 10.0 mi South 4.6 mph - N/A   Mostly Cloudy
6:26 PM 69.1 °F 62.1 °F 78% 29.77 in 10.0 mi South 4.6 mph - 0.01 in   Mostly Cloudy
6:52 PM 68.0 °F 62.1 °F 81% 29.77 in 10.0 mi South 3.5 mph - 0.01 in   Clear
7:52 PM 66.9 °F 62.1 °F 84% 29.77 in 10.0 mi SSE 3.5 mph - N/A   Clear
8:52 PM 66.0 °F 62.1 °F 87% 29.77 in 10.0 mi Calm Calm - N/A   Scattered Clouds
9:04 PM 66.0 °F 61.0 °F 84% 29.78 in 10.0 mi Calm Calm - N/A   Mostly Cloudy
9:52 PM 64.9 °F 61.0 °F 87% 29.79 in 10.0 mi Calm Calm - N/A   Mostly Cloudy
10:07 PM 64.9 °F 61.0 °F 87% 29.79 in 10.0 mi South 3.5 mph - N/A   Mostly Cloudy
10:22 PM 64.9 °F 61.0 °F 87% 29.79 in 10.0 mi Calm Calm - N/A   Overcast
11:52 PM 64.0 °F 61.0 °F 90% 29.79 in 9.0 mi Calm Calm - N/A   Overcast